User: anonymous   Login
Location: Hoyos del Collado
(40.3594°N, 5.2003°W)
Time: 22:27:40
(UTC+00:00)
Language:

Cosmos 1241 Rocket - Orbit

View from above orbital plane
View from above orbital plane
View from above satellite
View from above satellite

Ground track
Ground track

The orbit data is extracted from the following two-line orbital elements,

1 12150U 81006B   24170.47264045 -.00000053  00000-0  28420-4 0  9999
2 12150  65.8192 205.7205 0047992  18.8311 341.4514 13.77324774181171
Epoch (UTC): 18 June 2024 11:20:36
Eccentricity: 0.0047992
inclination: 65.8192°
perigee height: 938 km
apogee height: 1008 km
right ascension of ascending node: 205.7205°
argument of perigee: 18.8311°
revolutions per day: 13.77324774
mean anomaly at epoch: 341.4514°
orbit number at epoch: 18117

The dashed part of the orbit path shows where the satellite is in the earth's shadow,  

DLR